When you browse on this site, cookies collect data to enhance your experience and personalize the content and advertising you see.
Visit our Privacy Policy to learn more. By continuing to use the site, you agree to this use of cookies and data.
  • In Hungary
  • List of Countries
  • For 7 days
  • Water Temperature
  • Satellite Maps
  • Weather Map
  • News
  • Weather Widgets
  • user-avatar
    Login

    Hourly Weather Victoria

    Today, 27 June, Thursday

    Time Temperature Precipitation Wind Pressure Humidity
    00:00 +26°C° 0 mm 2 mps 762 mmHg 93%
    01:00 +26°C° 0 mm 2 mps 762 mmHg 94%
    02:00 +26°C° 0 mm 2 mps 761 mmHg 94%
    03:00 +26°C° 0 mm 2 mps 761 mmHg 95%
    04:00 +26°C° 0 mm 2 mps 762 mmHg 95%
    05:00 +26°C° 0 mm 2 mps 762 mmHg 96%
    06:00 +26°C° 0 mm 2 mps 762 mmHg 96%
    07:00 +28°C° 0 mm 2 mps 762 mmHg 88%
    08:00 +30°C° 0 mm 3 mps 762 mmHg 81%
    09:00 +31°C° 0 mm 3 mps 763 mmHg 73%
    10:00 +33°C° 0 mm 3 mps 763 mmHg 67%
    11:00 +34°C° 0 mm 4 mps 763 mmHg 61%
    12:00 +35°C° 0 mm 4 mps 763 mmHg 55%
    13:00 +35°C° 0 mm 4 mps 762 mmHg 55%
    14:00 +35°C° 0 mm 5 mps 762 mmHg 56%
    15:00 +35°C° 0 mm 5 mps 762 mmHg 56%
    16:00 +34°C° 0 mm 5 mps 761 mmHg 60%
    17:00 +34°C° 0 mm 4 mps 761 mmHg 64%
    18:00 +33°C° 0 mm 4 mps 761 mmHg 68%
    19:00 +30°C° 0 mm 4 mps 761 mmHg 76%
    20:00 +28°C° 0 mm 3 mps 762 mmHg 83%
    21:00 +27°C° 0 mm 3 mps 762 mmHg 91%
    22:00 +27°C° 0 mm 2 mps 762 mmHg 93%
    23:00 +26°C° 0 mm 2 mps 762 mmHg 94%

    Tomorrow, 28 June, Friday

    Time Temperature Precipitation Wind Pressure Humidity
    00:00 +26°C° 0 mm 2 mps 762 mmHg 95%
    01:00 +26°C° 0 mm 1 mps 762 mmHg 96%
    02:00 +26°C° 0 mm 1 mps 762 mmHg 96%
    03:00 +25°C° 0 mm 1 mps 762 mmHg 96%
    04:00 +23°C° 0 mm 0 mps 762 mmHg 96%
    05:00 +23°C° 0 mm 0 mps 762 mmHg 96%
    06:00 +23°C° 0 mm 0 mps 762 mmHg 97%
    07:00 +27°C° 0 mm 1 mps 762 mmHg 89%
    08:00 +29°C° 0 mm 1 mps 762 mmHg 81%
    09:00 +30°C° 0 mm 2 mps 763 mmHg 73%
    10:00 +32°C° 0 mm 2 mps 763 mmHg 65%
    11:00 +34°C° 0 mm 2 mps 762 mmHg 57%
    12:00 +36°C° 0 mm 2 mps 762 mmHg 48%
    13:00 +36°C° 0 mm 2 mps 762 mmHg 46%
    14:00 +37°C° 0 mm 3 mps 761 mmHg 44%
    15:00 +37°C° 0 mm 3 mps 761 mmHg 42%
    16:00 +36°C° 0 mm 4 mps 760 mmHg 47%
    17:00 +35°C° 0 mm 4 mps 760 mmHg 53%
    18:00 +34°C° 0 mm 4 mps 760 mmHg 59%
    19:00 +32°C° 0 mm 4 mps 760 mmHg 67%
    20:00 +29°C° 0 mm 4 mps 760 mmHg 74%
    21:00 +27°C° 0 mm 3 mps 761 mmHg 82%
    22:00 +27°C° 0 mm 3 mps 761 mmHg 85%
    23:00 +26°C° 0 mm 3 mps 761 mmHg 88%

    Day after tomorrow, 29 June, Saturday

    Time Temperature Precipitation Wind Pressure Humidity
    00:00 +26°C° 0 mm 3 mps 761 mmHg 92%
    01:00 +26°C° 0 mm 2 mps 760 mmHg 93%
    02:00 +25°C° 0 mm 2 mps 760 mmHg 93%
    03:00 +25°C° 0 mm 2 mps 760 mmHg 94%
    04:00 +25°C° 0 mm 1 mps 760 mmHg 94%
    05:00 +25°C° 0 mm 1 mps 761 mmHg 95%
    06:00 +25°C° 0 mm 1 mps 761 mmHg 95%
    07:00 +27°C° 0 mm 1 mps 761 mmHg 85%
    08:00 +29°C° 0 mm 2 mps 761 mmHg 75%
    09:00 +31°C° 0 mm 2 mps 762 mmHg 65%
    10:00 +32°C° 0 mm 1 mps 761 mmHg 57%
    11:00 +34°C° 0 mm 1 mps 761 mmHg 49%
    12:00 +35°C° 0 mm 1 mps 761 mmHg 41%
    13:00 +36°C° 0 mm 1 mps 760 mmHg 40%
    14:00 +36°C° 0 mm 1 mps 760 mmHg 38%
    15:00 +37°C° 0 mm 1 mps 759 mmHg 37%
    16:00 +37°C° 0 mm 2 mps 759 mmHg 41%
    17:00 +36°C° 0 mm 2 mps 758 mmHg 45%
    18:00 +35°C° 0 mm 3 mps 758 mmHg 49%
    19:00 +33°C° 0 mm 3 mps 758 mmHg 55%
    20:00 +30°C° 0 mm 3 mps 759 mmHg 62%
    21:00 +28°C° 0 mm 3 mps 759 mmHg 68%
    22:00 +27°C° 0 mm 2 mps 759 mmHg 71%
    23:00 +27°C° 0 mm 2 mps 760 mmHg 74%

    30 June, Sunday

    Time Temperature Precipitation Wind Pressure Humidity
    00:00 +26°C° 0 mm 2 mps 760 mmHg 78%
    01:00 +26°C° 0.1 mm 2 mps 760 mmHg 80%
    02:00 +26°C° 0.1 mm 2 mps 759 mmHg 83%
    03:00 +25°C° 0.1 mm 1 mps 759 mmHg 85%
    04:00 +25°C° 0 mm 1 mps 759 mmHg 86%
    05:00 +25°C° 0 mm 1 mps 760 mmHg 86%
    06:00 +25°C° 0 mm 1 mps 760 mmHg 86%
    07:00 +27°C° 0 mm 1 mps 760 mmHg 79%
    08:00 +28°C° 0 mm 1 mps 760 mmHg 72%
    09:00 +30°C° 0 mm 1 mps 761 mmHg 65%
    10:00 +32°C° 0 mm 1 mps 760 mmHg 59%
    11:00 +33°C° 0 mm 1 mps 760 mmHg 53%
    12:00 +35°C° 0 mm 1 mps 760 mmHg 47%
    13:00 +35°C° 0 mm 1 mps 759 mmHg 46%
    14:00 +36°C° 0 mm 2 mps 759 mmHg 45%
    15:00 +37°C° 0 mm 3 mps 758 mmHg 44%
    16:00 +35°C° 0 mm 4 mps 758 mmHg 49%
    17:00 +34°C° 0 mm 4 mps 758 mmHg 54%
    18:00 +33°C° 0 mm 5 mps 758 mmHg 60%
    19:00 +30°C° 0.2 mm 4 mps 758 mmHg 66%
    20:00 +29°C° 0.2 mm 3 mps 759 mmHg 73%
    21:00 +27°C° 0.2 mm 3 mps 759 mmHg 79%
    22:00 +27°C° 0 mm 3 mps 759 mmHg 81%
    23:00 +26°C° 0 mm 3 mps 760 mmHg 82%

    1 July, Monday

    Time Temperature Precipitation Wind Pressure Humidity
    00:00 +26°C° 0 mm 3 mps 760 mmHg 84%
    01:00 +26°C° 0 mm 2 mps 760 mmHg 85%
    02:00 +26°C° 0 mm 2 mps 759 mmHg 86%
    03:00 +25°C° 0 mm 2 mps 759 mmHg 87%
    04:00 +25°C° 0 mm 1 mps 759 mmHg 88%
    05:00 +25°C° 0 mm 1 mps 759 mmHg 89%
    06:00 +25°C° 0 mm 1 mps 760 mmHg 90%
    07:00 +27°C° 0 mm 1 mps 760 mmHg 82%
    08:00 +29°C° 0 mm 1 mps 760 mmHg 75%
    09:00 +30°C° 0 mm 2 mps 761 mmHg 68%
    10:00 +32°C° 0 mm 2 mps 761 mmHg 63%
    11:00 +34°C° 0 mm 3 mps 760 mmHg 57%
    12:00 +35°C° 0 mm 4 mps 760 mmHg 52%
    13:00 +35°C° 0 mm 4 mps 760 mmHg 52%
    14:00 +35°C° 0 mm 5 mps 759 mmHg 51%
    15:00 +35°C° 0 mm 6 mps 758 mmHg 51%
    16:00 +34°C° 0 mm 5 mps 758 mmHg 56%
    17:00 +33°C° 0 mm 5 mps 758 mmHg 61%
    18:00 +32°C° 0 mm 5 mps 758 mmHg 65%
    19:00 +30°C° 0 mm 4 mps 758 mmHg 71%
    20:00 +29°C° 0 mm 4 mps 759 mmHg 77%
    21:00 +28°C° 0 mm 3 mps 759 mmHg 82%
    22:00 +28°C° 0 mm 3 mps 759 mmHg 83%
    23:00 +28°C° 0 mm 3 mps 759 mmHg 84%

    2 July, Tuesday

    Time Temperature Precipitation Wind Pressure Humidity
    00:00 +28°C° 0 mm 3 mps 759 mmHg 84%
    01:00 +27°C° 0 mm 3 mps 759 mmHg 85%
    02:00 +27°C° 0 mm 2 mps 759 mmHg 85%
    03:00 +27°C° 0 mm 2 mps 758 mmHg 86%
    04:00 +27°C° 1.4 mm 2 mps 758 mmHg 88%
    05:00 +26°C° 1.4 mm 2 mps 759 mmHg 90%
    06:00 +26°C° 1.4 mm 2 mps 759 mmHg 92%
    07:00 +26°C° 2.9 mm 2 mps 759 mmHg 92%
    08:00 +26°C° 2.9 mm 1 mps 759 mmHg 93%
    09:00 +26°C° 2.9 mm 1 mps 760 mmHg 93%
    10:00 +26°C° 3 mm 2 mps 760 mmHg 93%
    11:00 +26°C° 3 mm 2 mps 760 mmHg 93%
    12:00 +26°C° 3 mm 3 mps 760 mmHg 94%
    13:00 +26°C° 8.7 mm 4 mps 759 mmHg 94%
    14:00 +25°C° 8.7 mm 4 mps 759 mmHg 94%
    15:00 +25°C° 8.7 mm 4 mps 759 mmHg 95%
    16:00 +25°C° 1.7 mm 4 mps 758 mmHg 93%
    17:00 +26°C° 1.7 mm 4 mps 758 mmHg 92%
    18:00 +26°C° 1.7 mm 3 mps 758 mmHg 91%
    19:00 +26°C° 0 mm 3 mps 758 mmHg 91%
    20:00 +26°C° 0 mm 3 mps 758 mmHg 90%
    21:00 +25°C° 0 mm 3 mps 758 mmHg 90%
    22:00 +25°C° 0.1 mm 3 mps 758 mmHg 91%
    23:00 +25°C° 0.1 mm 3 mps 758 mmHg 92%
    Show more